QPF
0.01 0.01 0.01 0.01 0.01 0.01 0.01 0.01 0.01 0.02 0.02 0.02 0.03 0.04 0.05 0.08 0.06 0.03 0.03 0.02 0.01 0.01 0.00 0.00 0.00 0.00 0.00 0.00 0.01 0.02 0.03 0.04 0.07 0.08 0.11 0.17 0.20 0.15 0.10 0.07 0.05 0.06 0.06 0.05
0.01 0.01 0.02 0.01 0.01 0.01 0.01 0.01 0.01 0.01 0.02 0.01 0.01 0.01 0.02 0.04 0.06 0.05 0.03 0.02 0.01 0.01 0.00 0.00 0.00 0.00 0.00 0.00 0.00 0.01 0.01 0.02 0.03 0.05 0.08 0.12 0.10 0.09 0.09 0.10 0.10 0.11 0.12 0.11
0.01 0.02 0.02 0.02 0.02 0.02 0.02 0.02 0.02 0.01 0.01 0.01 0.01 0.01 0.01 0.01 0.02 0.03 0.03 0.02 0.02 0.01 0.01 0.01 0.01 0.01 0.01 0.00 0.00 0.00 0.00 0.00 0.00 0.01 0.02 0.04 0.06 0.06 0.05 0.07 0.08 0.09 0.11 0.13
0.02 0.03 0.03 0.03 0.03 0.03 0.03 0.03 0.02 0.01 0.01 0.02 0.02 0.02 0.04 0.04 0.04 0.03 0.03 0.02 0.02 0.02 0.01 0.01 0.01 0.01 0.00 0.00 0.00 0.00 0.00 0.00 0.00 0.00 0.01 0.03 0.05 0.05 0.05 0.05 0.05 0.05 0.07 0.11
0.01 0.03 0.03 0.03 0.02 0.03 0.05 0.04 0.03 0.02 0.02 0.03 0.04 0.04 0.07 0.08 0.05 0.05 0.03 0.02 0.03 0.03 0.02 0.01 0.01 0.01 0.00 0.00 0.00 0.00 0.00 0.00 0.00 0.01 0.01 0.02 0.03 0.04 0.05 0.05 0.05 0.05 0.05 0.08
0.02 0.02 0.02 0.01 0.01 0.01 0.02 0.03 0.03 0.02 0.02 0.02 0.02 0.03 0.04 0.05 0.04 0.05 0.03 0.01 0.02 0.04 0.02 0.01 0.01 0.02 0.01 0.01 0.00 0.00 0.00 0.00 0.00 0.01 0.02 0.02 0.03 0.05 0.07 0.08 0.07 0.07 0.06 0.07
0.02 0.02 0.01 0.01 0.01 0.01 0.01 0.02 0.02 0.02 0.02 0.01 0.01 0.00 0.01 0.03 0.03 0.02 0.02 0.02 0.02 0.02 0.02 0.01 0.01 0.01 0.01 0.01 0.00 0.00 0.00 0.01 0.01 0.02 0.02 0.02 0.03 0.04 0.07 0.09 0.09 0.08 0.08 0.08
0.02 0.03 0.02 0.01 0.02 0.02 0.01 0.01 0.01 0.01 0.01 0.01 0.00 0.00 0.01 0.01 0.03 0.03 0.02 0.01 0.02 0.01 0.01 0.01 0.02 0.01 0.00 0.01 0.01 0.01 0.01 0.02 0.02 0.02 0.01 0.01 0.03 0.04 0.06 0.08 0.08 0.08 0.09 0.10
0.02 0.01 0.01 0.01 0.01 0.01 0.01 0.01 0.00 0.00 0.01 0.01 0.01 0.01 0.01 0.01 0.03 0.06 0.03 0.02 0.02 0.02 0.02 0.02 0.04 0.04 0.02 0.01 0.01 0.02 0.02 0.02 0.02 0.02 0.03 0.03 0.04 0.05 0.05 0.06 0.06 0.07 0.09 0.12
0.02 0.02 0.01 0.02 0.01 0.01 0.01 0.00 0.00 0.00 0.01 0.01 0.01 0.02 0.03 0.03 0.04 0.08 0.05 0.03 0.03 0.03 0.03 0.03 0.02 0.04 0.04 0.03 0.03 0.03 0.03 0.03 0.03 0.03 0.03 0.04 0.04 0.04 0.04 0.03 0.03 0.04 0.07 0.09
0.06 0.04 0.02 0.03 0.02 0.02 0.01 0.01 0.01 0.01 0.01 0.01 0.03 0.05 0.04 0.04 0.05 0.08 0.08 0.05 0.04 0.03 0.04 0.05 0.05 0.04 0.04 0.04 0.04 0.04 0.04 0.03 0.03 0.03 0.02 0.02 0.02 0.02 0.02 0.02 0.02 0.02 0.03 0.04
0.09 0.06 0.04 0.03 0.02 0.02 0.02 0.01 0.01 0.01 0.02 0.02 0.03 0.06 0.06 0.06 0.06 0.08 0.10 0.07 0.05 0.04 0.03 0.04 0.06 0.06 0.05 0.06 0.05 0.05 0.04 0.04 0.03 0.02 0.01 0.02 0.01 0.02 0.03 0.03 0.03 0.03 0.03 0.04
0.07 0.05 0.03 0.02 0.02 0.01 0.01 0.01 0.01 0.02 0.02 0.02 0.03 0.04 0.06 0.07 0.07 0.08 0.10 0.09 0.06 0.04 0.03 0.02 0.02 0.04 0.05 0.06 0.07 0.07 0.05 0.03 0.02 0.01 0.02 0.02 0.02 0.02 0.03 0.04 0.05 0.05 0.06 0.06
0.06 0.03 0.02 0.02 0.01 0.01 0.01 0.01 0.01 0.04 0.06 0.04 0.04 0.04 0.05 0.06 0.07 0.08 0.10 0.11 0.07 0.04 0.03 0.02 0.01 0.02 0.02 0.03 0.04 0.04 0.03 0.03 0.02 0.02 0.02 0.02 0.02 0.02 0.03 0.04 0.06 0.07 0.06 0.05
0.05 0.02 0.01 0.01 0.01 0.02 0.05 0.05 0.04 0.07 0.08 0.05 0.04 0.05 0.04 0.07 0.09 0.09 0.08 0.09 0.07 0.04 0.02 0.01 0.01 0.01 0.02 0.02 0.02 0.03 0.02 0.02 0.02 0.02 0.02 0.02 0.02 0.03 0.03 0.03 0.04 0.04 0.05 0.05
0.04 0.02 0.01 0.01 0.02 0.04 0.09 0.09 0.07 0.08 0.09 0.06 0.05 0.04 0.04 0.06 0.09 0.09 0.08 0.06 0.05 0.04 0.02 0.01 0.01 0.01 0.01 0.02 0.02 0.02 0.02 0.02 0.02 0.02 0.02 0.02 0.04 0.04 0.03 0.03 0.02 0.02 0.03 0.04
0.02 0.01 0.01 0.01 0.01 0.02 0.04 0.03 0.03 0.08 0.09 0.07 0.05 0.03 0.04 0.06 0.08 0.09 0.08 0.06 0.04 0.03 0.03 0.02 0.01 0.01 0.01 0.02 0.01 0.01 0.02 0.02 0.02 0.02 0.02 0.03 0.04 0.04 0.04 0.03 0.03 0.02 0.02 0.03
0.02 0.01 0.01 0.01 0.02 0.04 0.07 0.05 0.05 0.07 0.07 0.07 0.06 0.04 0.05 0.07 0.08 0.08 0.09 0.07 0.04 0.03 0.03 0.04 0.03 0.02 0.02 0.02 0.02 0.02 0.02 0.01 0.02 0.02 0.03 0.04 0.05 0.05 0.04 0.03 0.02 0.02 0.03 0.03
0.03 0.02 0.01 0.02 0.02 0.03 0.06 0.07 0.09 0.09 0.08 0.09 0.08 0.08 0.09 0.09 0.08 0.08 0.08 0.06 0.04 0.03 0.03 0.04 0.04 0.03 0.03 0.03 0.03 0.03 0.02 0.02 0.02 0.03 0.04 0.04 0.04 0.03 0.02 0.02 0.02 0.02 0.03 0.04
0.03 0.02 0.02 0.03 0.04 0.05 0.06 0.06 0.10 0.10 0.09 0.09 0.07 0.09 0.10 0.08 0.08 0.08 0.06 0.05 0.03 0.03 0.03 0.03 0.04 0.04 0.03 0.03 0.03 0.02 0.02 0.03 0.03 0.03 0.03 0.03 0.03 0.02 0.02 0.02 0.01 0.01 0.02 0.03
0.04 0.04 0.05 0.05 0.04 0.05 0.05 0.06 0.11 0.13 0.12 0.10 0.08 0.08 0.07 0.09 0.10 0.08 0.06 0.04 0.04 0.05 0.04 0.04 0.04 0.03 0.03 0.03 0.02 0.02 0.03 0.03 0.02 0.02 0.02 0.02 0.01 0.01 0.02 0.02 0.02 0.02 0.03 0.03
0.06 0.05 0.05 0.06 0.06 0.06 0.07 0.07 0.08 0.08 0.09 0.09 0.08 0.08 0.08 0.09 0.09 0.10 0.08 0.06 0.05 0.06 0.06 0.06 0.05 0.05 0.05 0.04 0.03 0.02 0.03 0.02 0.02 0.01 0.01 0.01 0.01 0.01 0.01 0.02 0.03 0.03 0.02 0.03
0.08 0.06 0.06 0.06 0.05 0.06 0.08 0.08 0.09 0.07 0.07 0.06 0.08 0.09 0.09 0.08 0.08 0.10 0.12 0.10 0.07 0.06 0.07 0.08 0.08 0.07 0.06 0.05 0.04 0.03 0.02 0.02 0.01 0.01 0.01 0.01 0.01 0.02 0.02 0.02 0.02 0.01 0.01 0.01
0.07 0.05 0.05 0.04 0.04 0.05 0.08 0.10 0.10 0.09 0.08 0.08 0.08 0.10 0.11 0.10 0.09 0.10 0.11 0.10 0.07 0.07 0.08 0.10 0.10 0.08 0.07 0.07 0.06 0.04 0.03 0.02 0.01 0.01 0.00 0.01 0.02 0.04 0.04 0.04 0.02 0.02 0.01 0.01
0.06 0.05 0.04 0.03 0.04 0.05 0.07 0.10 0.10 0.10 0.09 0.09 0.09 0.10 0.10 0.09 0.07 0.07 0.07 0.06 0.05 0.04 0.05 0.08 0.10 0.09 0.07 0.06 0.06 0.04 0.03 0.02 0.02 0.01 0.01 0.02 0.05 0.07 0.08 0.06 0.03 0.02 0.02 0.02
0.07 0.05 0.04 0.04 0.04 0.05 0.08 0.10 0.09 0.09 0.08 0.08 0.08 0.07 0.07 0.06 0.05 0.04 0.05 0.05 0.04 0.04 0.04 0.06 0.07 0.07 0.07 0.06 0.06 0.05 0.03 0.02 0.01 0.01 0.01 0.01 0.02 0.03 0.05 0.05 0.04 0.03 0.03 0.03
0.07 0.06 0.05 0.06 0.06 0.06 0.07 0.08 0.07 0.07 0.08 0.08 0.07 0.06 0.04 0.04 0.04 0.04 0.04 0.04 0.05 0.05 0.04 0.04 0.03 0.03 0.06 0.08 0.06 0.06 0.04 0.02 0.01 0.01 0.01 0.02 0.02 0.02 0.02 0.03 0.03 0.03 0.03 0.03
MSLP
1007.86 1008.00 1008.23 1008.51 1008.79 1009.00 1009.08 1008.99 1008.72 1008.29 1007.74 1007.14 1006.57 1006.14 1005.89 1005.89 1006.13 1006.60 1007.25 1008.02 1008.83 1009.63 1010.38 1011.06 1011.65 1012.19 1012.69 1013.17 1013.64 1014.11 1014.57 1015.01 1015.42 1015.78 1016.10 1016.38 1016.63 1016.87 1017.11 1017.34 1017.58 1017.81 1017.99 1018.13
1008.06 1008.08 1008.11 1008.14 1008.14 1008.06 1007.89 1007.63 1007.28 1006.87 1006.44 1006.06 1005.78 1005.65 1005.70 1005.95 1006.37 1006.95 1007.63 1008.37 1009.11 1009.83 1010.51 1011.13 1011.72 1012.28 1012.83 1013.38 1013.93 1014.47 1014.99 1015.46 1015.89 1016.25 1016.56 1016.83 1017.08 1017.32 1017.57 1017.84 1018.11 1018.37 1018.60 1018.76
1008.24 1008.15 1008.02 1007.85 1007.61 1007.30 1006.93 1006.52 1006.10 1005.71 1005.39 1005.18 1005.13 1005.24 1005.52 1005.96 1006.53 1007.19 1007.90 1008.62 1009.32 1009.99 1010.63 1011.24 1011.83 1012.43 1013.04 1013.66 1014.27 1014.87 1015.43 1015.93 1016.36 1016.72 1017.03 1017.29 1017.54 1017.79 1018.06 1018.35 1018.66 1018.95 1019.20 1019.39
1008.35 1008.17 1007.92 1007.59 1007.18 1006.71 1006.20 1005.69 1005.23 1004.85 1004.60 1004.52 1004.61 1004.89 1005.33 1005.90 1006.57 1007.29 1008.03 1008.76 1009.46 1010.12 1010.76 1011.39 1012.03 1012.68 1013.35 1014.02 1014.69 1015.33 1015.91 1016.42 1016.84 1017.20 1017.49 1017.75 1018.00 1018.26 1018.55 1018.87 1019.20 1019.51 1019.79 1019.99
1008.30 1008.03 1007.69 1007.26 1006.75 1006.19 1005.60 1005.05 1004.57 1004.21 1004.01 1004.00 1004.19 1004.57 1005.10 1005.75 1006.49 1007.26 1008.04 1008.79 1009.52 1010.23 1010.91 1011.60 1012.30 1013.02 1013.74 1014.47 1015.17 1015.82 1016.40 1016.89 1017.31 1017.64 1017.92 1018.18 1018.43 1018.71 1019.02 1019.36 1019.70 1020.04 1020.32 1020.52
1007.99 1007.64 1007.23 1006.74 1006.19 1005.59 1004.99 1004.44 1003.98 1003.66 1003.50 1003.54 1003.79 1004.22 1004.80 1005.50 1006.28 1007.10 1007.92 1008.74 1009.53 1010.31 1011.08 1011.85 1012.62 1013.41 1014.18 1014.94 1015.65 1016.30 1016.86 1017.33 1017.72 1018.04 1018.31 1018.56 1018.82 1019.12 1019.45 1019.80 1020.16 1020.50 1020.78 1020.97
1007.38 1006.93 1006.45 1005.93 1005.37 1004.80 1004.24 1003.73 1003.33 1003.06 1002.96 1003.05 1003.34 1003.80 1004.41 1005.14 1005.96 1006.82 1007.71 1008.60 1009.48 1010.35 1011.22 1012.08 1012.94 1013.78 1014.60 1015.38 1016.09 1016.72 1017.25 1017.70 1018.06 1018.36 1018.63 1018.89 1019.17 1019.48 1019.83 1020.19 1020.56 1020.90 1021.17 1021.35
1006.46 1005.90 1005.35 1004.80 1004.26 1003.73 1003.25 1002.83 1002.51 1002.33 1002.31 1002.46 1002.79 1003.29 1003.94 1004.71 1005.57 1006.49 1007.44 1008.41 1009.39 1010.36 1011.33 1012.27 1013.20 1014.09 1014.94 1015.72 1016.41 1017.02 1017.53 1017.95 1018.30 1018.61 1018.88 1019.17 1019.47 1019.80 1020.17 1020.55 1020.92 1021.24 1021.50 1021.66
1005.34 1004.65 1004.01 1003.43 1002.90 1002.43 1002.03 1001.72 1001.51 1001.44 1001.51 1001.75 1002.15 1002.71 1003.41 1004.23 1005.15 1006.13 1007.16 1008.22 1009.29 1010.35 1011.39 1012.40 1013.38 1014.30 1015.15 1015.92 1016.60 1017.19 1017.68 1018.10 1018.45 1018.77 1019.08 1019.40 1019.74 1020.10 1020.49 1020.88 1021.24 1021.55 1021.79 1021.93
1004.17 1003.33 1002.59 1001.97 1001.44 1001.02 1000.70 1000.49 1000.41 1000.45 1000.64 1000.98 1001.47 1002.12 1002.89 1003.78 1004.77 1005.83 1006.94 1008.07 1009.21 1010.33 1011.43 1012.48 1013.47 1014.39 1015.24 1015.99 1016.65 1017.22 1017.72 1018.15 1018.53 1018.89 1019.25 1019.62 1020.00 1020.40 1020.81 1021.20 1021.55 1021.85 1022.06 1022.18
1003.12 1002.14 1001.31 1000.62 1000.08 999.68 999.42 999.29 999.31 999.47 999.78 1000.23 1000.84 1001.58 1002.46 1003.44 1004.51 1005.65 1006.82 1008.02 1009.20 1010.36 1011.47 1012.52 1013.50 1014.41 1015.22 1015.95 1016.60 1017.17 1017.68 1018.14 1018.57 1018.99 1019.41 1019.84 1020.27 1020.70 1021.13 1021.52 1021.86 1022.13 1022.32 1022.41
1002.36 1001.26 1000.34 999.58 999.00 998.59 998.35 998.29 998.38 998.64 999.05 999.62 1000.34 1001.20 1002.18 1003.26 1004.42 1005.63 1006.87 1008.10 1009.30 1010.46 1011.56 1012.59 1013.53 1014.39 1015.17 1015.86 1016.50 1017.07 1017.61 1018.12 1018.61 1019.10 1019.58 1020.07 1020.55 1021.02 1021.45 1021.83 1022.15 1022.39 1022.55 1022.62
1001.93 1000.77 999.77 998.95 998.32 997.88 997.64 997.59 997.73 998.05 998.55 999.22 1000.05 1001.02 1002.10 1003.28 1004.52 1005.80 1007.07 1008.33 1009.53 1010.67 1011.73 1012.70 1013.59 1014.39 1015.12 1015.79 1016.41 1017.00 1017.57 1018.13 1018.68 1019.23 1019.78 1020.32 1020.84 1021.32 1021.75 1022.11 1022.41 1022.61 1022.74 1022.78
1001.81 1000.63 999.60 998.73 998.05 997.58 997.31 997.25 997.40 997.76 998.32 999.06 999.98 1001.04 1002.22 1003.48 1004.79 1006.12 1007.43 1008.69 1009.88 1010.98 1011.98 1012.89 1013.70 1014.45 1015.13 1015.77 1016.38 1016.98 1017.58 1018.18 1018.79 1019.39 1019.99 1020.57 1021.10 1021.58 1022.00 1022.34 1022.60 1022.78 1022.87 1022.89
1001.85 1000.72 999.70 998.82 998.12 997.61 997.31 997.23 997.38 997.75 998.34 999.13 1000.11 1001.25 1002.50 1003.83 1005.19 1006.56 1007.88 1009.13 1010.29 1011.34 1012.28 1013.12 1013.87 1014.56 1015.19 1015.81 1016.41 1017.02 1017.64 1018.27 1018.92 1019.56 1020.19 1020.78 1021.31 1021.78 1022.18 1022.49 1022.71 1022.86 1022.92 1022.92
1001.88 1000.85 999.90 999.06 998.36 997.84 997.53 997.43 997.57 997.94 998.55 999.38 1000.40 1001.58 1002.88 1004.25 1005.65 1007.03 1008.35 1009.58 1010.70 1011.71 1012.59 1013.37 1014.07 1014.70 1015.30 1015.89 1016.48 1017.09 1017.73 1018.38 1019.05 1019.70 1020.33 1020.92 1021.44 1021.89 1022.25 1022.53 1022.73 1022.85 1022.90 1022.89
1001.72 1000.84 1000.00 999.24 998.60 998.12 997.82 997.73 997.88 998.26 998.88 999.73 1000.78 1001.99 1003.31 1004.70 1006.11 1007.48 1008.79 1009.99 1011.07 1012.02 1012.86 1013.59 1014.24 1014.83 1015.41 1015.98 1016.56 1017.17 1017.81 1018.47 1019.13 1019.78 1020.39 1020.96 1021.45 1021.87 1022.20 1022.46 1022.63 1022.74 1022.78 1022.78
1001.26 1000.56 999.88 999.26 998.72 998.32 998.08 998.04 998.22 998.63 999.28 1000.14 1001.20 1002.42 1003.75 1005.13 1006.52 1007.87 1009.14 1010.30 1011.33 1012.24 1013.03 1013.72 1014.34 1014.91 1015.47 1016.03 1016.61 1017.22 1017.85 1018.50 1019.14 1019.77 1020.35 1020.88 1021.34 1021.73 1022.03 1022.27 1022.43 1022.54 1022.59 1022.60
1000.48 999.98 999.50 999.04 998.66 998.39 998.27 998.32 998.57 999.04 999.72 1000.60 1001.67 1002.88 1004.18 1005.53 1006.87 1008.17 1009.39 1010.49 1011.48 1012.34 1013.09 1013.75 1014.35 1014.91 1015.46 1016.02 1016.60 1017.20 1017.82 1018.44 1019.06 1019.65 1020.20 1020.69 1021.11 1021.47 1021.76 1021.98 1022.15 1022.27 1022.35 1022.38
999.47 999.18 998.90 998.66 998.46 998.37 998.40 998.58 998.94 999.48 1000.22 1001.12 1002.19 1003.38 1004.64 1005.93 1007.20 1008.43 1009.57 1010.61 1011.53 1012.34 1013.06 1013.69 1014.28 1014.84 1015.39 1015.95 1016.52 1017.12 1017.72 1018.32 1018.90 1019.45 1019.96 1020.41 1020.80 1021.13 1021.40 1021.63 1021.81 1021.95 1022.06 1022.13
998.40 998.31 998.25 998.21 998.23 998.34 998.55 998.89 999.37 1000.01 1000.81 1001.75 1002.81 1003.96 1005.16 1006.37 1007.56 1008.69 1009.74 1010.69 1011.54 1012.30 1012.97 1013.59 1014.17 1014.72 1015.28 1015.84 1016.41 1016.99 1017.58 1018.15 1018.69 1019.20 1019.67 1020.08 1020.44 1020.74 1021.01 1021.24 1021.44 1021.61 1021.76 1021.86
997.44 997.54 997.67 997.85 998.09 998.40 998.80 999.31 999.93 1000.68 1001.54 1002.50 1003.55 1004.65 1005.78 1006.90 1007.98 1009.00 1009.94 1010.80 1011.57 1012.26 1012.90 1013.49 1014.06 1014.61 1015.17 1015.73 1016.30 1016.87 1017.43 1017.97 1018.48 1018.95 1019.37 1019.74 1020.07 1020.37 1020.63 1020.87 1021.08 1021.28 1021.46 1021.60
996.72 996.98 997.30 997.67 998.11 998.62 999.21 999.88 1000.63 1001.48 1002.40 1003.38 1004.41 1005.46 1006.50 1007.52 1008.49 1009.39 1010.22 1010.98 1011.67 1012.30 1012.89 1013.46 1014.01 1014.56 1015.11 1015.67 1016.23 1016.78 1017.32 1017.83 1018.30 1018.73 1019.11 1019.46 1019.76 1020.04 1020.29 1020.54 1020.77 1020.99 1021.20 1021.37
996.30 996.70 997.18 997.72 998.34 999.02 999.77 1000.58 1001.45 1002.38 1003.35 1004.34 1005.35 1006.34 1007.30 1008.22 1009.07 1009.87 1010.59 1011.25 1011.86 1012.43 1012.98 1013.52 1014.05 1014.59 1015.13 1015.68 1016.23 1016.76 1017.27 1017.75 1018.19 1018.58 1018.93 1019.24 1019.52 1019.78 1020.04 1020.28 1020.52 1020.76 1020.98 1021.18
996.16 996.68 997.29 997.97 998.73 999.55 1000.43 1001.35 1002.32 1003.31 1004.32 1005.32 1006.29 1007.23 1008.12 1008.95 1009.70 1010.40 1011.03 1011.61 1012.15 1012.67 1013.17 1013.68 1014.19 1014.71 1015.25 1015.78 1016.31 1016.82 1017.30 1017.74 1018.15 1018.51 1018.82 1019.11 1019.37 1019.62 1019.87 1020.11 1020.36 1020.60 1020.83 1021.04
996.24 996.85 997.56 998.35 999.21 1000.13 1001.10 1002.12 1003.15 1004.19 1005.21 1006.21 1007.17 1008.06 1008.89 1009.64 1010.32 1010.94 1011.50 1012.01 1012.50 1012.97 1013.44 1013.92 1014.41 1014.92 1015.43 1015.94 1016.45 1016.93 1017.38 1017.80 1018.17 1018.50 1018.80 1019.06 1019.31 1019.55 1019.79 1020.03 1020.28 1020.52 1020.75 1020.95
996.45 997.14 997.92 998.78 999.71 1000.70 1001.73 1002.79 1003.86 1004.93 1005.97 1006.96 1007.89 1008.75 1009.54 1010.24 1010.87 1011.44 1011.95 1012.42 1012.87 1013.31 1013.75 1014.21 1014.67 1015.16 1015.65 1016.14 1016.61 1017.06 1017.49 1017.87 1018.22 1018.53 1018.81 1019.07 1019.31 1019.54 1019.78 1020.01 1020.25 1020.49 1020.71 1020.90
Thickness
5761 5771 5776 5775 5777 5779 5770 5764 5754 5760 5765 5776 5786 5792 5796 5798 5797 5796 5795 5793 5793 5791 5789 5787 5785 5782 5780 5777 5775 5772 5768 5764 5761 5759 5757 5753 5749 5746 5744 5742 5740 5737 5735 5733
5752 5765 5767 5765 5771 5775 5773 5771 5764 5765 5767 5784 5789 5791 5790 5790 5790 5787 5788 5788 5788 5788 5786 5784 5782 5779 5775 5772 5770 5767 5763 5759 5757 5754 5751 5748 5744 5742 5739 5736 5733 5730 5727 5725
5728 5746 5751 5742 5761 5766 5768 5770 5765 5757 5767 5779 5779 5782 5784 5785 5786 5784 5784 5783 5783 5783 5782 5780 5779 5777 5772 5770 5767 5762 5758 5754 5751 5748 5745 5743 5741 5737 5733 5730 5727 5724 5721 5719
5715 5726 5715 5739 5768 5772 5766 5765 5769 5769 5772 5777 5778 5781 5783 5784 5781 5780 5782 5782 5781 5780 5779 5778 5776 5773 5769 5766 5761 5756 5753 5749 5747 5743 5740 5737 5734 5730 5727 5724 5721 5718 5715 5713
5701 5703 5715 5739 5759 5763 5754 5750 5763 5764 5768 5770 5774 5773 5771 5778 5780 5780 5780 5782 5781 5780 5778 5775 5772 5768 5763 5757 5754 5750 5747 5745 5743 5739 5735 5731 5727 5724 5722 5719 5716 5713 5711 5707
5697 5697 5699 5727 5757 5767 5755 5734 5757 5761 5761 5763 5764 5749 5755 5772 5775 5777 5778 5777 5776 5776 5774 5769 5767 5764 5755 5750 5747 5745 5744 5742 5739 5735 5730 5726 5723 5720 5717 5714 5711 5708 5705 5702
5691 5691 5703 5735 5753 5754 5725 5728 5752 5757 5757 5756 5753 5753 5761 5768 5770 5772 5772 5771 5770 5769 5766 5764 5763 5758 5751 5746 5742 5742 5740 5737 5733 5730 5726 5722 5718 5715 5712 5708 5705 5701 5697 5694
5684 5682 5695 5736 5739 5729 5729 5743 5747 5749 5751 5751 5751 5755 5758 5761 5762 5764 5763 5763 5762 5760 5758 5758 5757 5752 5746 5741 5739 5736 5732 5728 5725 5722 5720 5717 5712 5709 5705 5701 5697 5693 5689 5685
5690 5695 5715 5729 5730 5734 5736 5735 5738 5741 5744 5745 5743 5744 5748 5749 5751 5754 5754 5755 5756 5754 5751 5749 5748 5746 5740 5737 5735 5730 5725 5720 5717 5714 5711 5708 5704 5700 5696 5693 5689 5685 5682 5678
5687 5699 5711 5719 5725 5728 5732 5732 5735 5738 5739 5739 5736 5737 5738 5739 5741 5743 5745 5747 5747 5745 5742 5739 5739 5739 5736 5732 5728 5723 5718 5713 5709 5705 5702 5699 5697 5693 5689 5685 5683 5679 5675 5672
5678 5690 5699 5708 5715 5720 5724 5726 5728 5730 5733 5732 5731 5729 5730 5729 5731 5733 5735 5737 5737 5736 5734 5732 5732 5730 5729 5725 5722 5716 5710 5706 5702 5699 5696 5691 5688 5685 5683 5680 5678 5675 5672 5668
5670 5685 5686 5693 5705 5713 5713 5715 5718 5720 5721 5723 5723 5722 5722 5721 5722 5724 5724 5726 5726 5727 5726 5724 5723 5721 5720 5718 5715 5709 5703 5697 5694 5691 5688 5684 5680 5676 5675 5673 5671 5670 5668 5664
5680 5687 5689 5695 5700 5704 5704 5707 5711 5712 5713 5711 5713 5714 5714 5713 5715 5715 5714 5715 5715 5716 5717 5716 5715 5713 5712 5711 5707 5702 5696 5692 5688 5684 5681 5676 5673 5669 5665 5664 5663 5662 5660 5658
5680 5681 5680 5685 5688 5694 5696 5698 5701 5702 5704 5704 5704 5705 5706 5706 5706 5705 5704 5707 5708 5708 5708 5708 5706 5705 5705 5703 5700 5695 5690 5687 5682 5678 5674 5671 5667 5663 5659 5656 5653 5652 5651 5650
5672 5674 5675 5679 5681 5683 5686 5688 5688 5690 5693 5694 5696 5696 5696 5696 5695 5695 5697 5700 5700 5698 5699 5699 5698 5697 5697 5695 5692 5687 5683 5680 5676 5672 5667 5664 5660 5656 5652 5649 5646 5643 5642 5641
5665 5666 5667 5669 5671 5673 5675 5677 5677 5680 5684 5686 5687 5687 5688 5688 5689 5690 5690 5690 5689 5688 5690 5690 5689 5690 5690 5687 5683 5679 5676 5674 5670 5665 5660 5656 5652 5648 5645 5641 5638 5636 5634 5633
5655 5655 5658 5659 5662 5665 5668 5670 5672 5674 5676 5678 5679 5681 5681 5681 5681 5682 5683 5684 5683 5683 5684 5683 5683 5684 5683 5679 5675 5672 5668 5665 5663 5657 5652 5649 5645 5642 5639 5635 5632 5629 5628 5627
5654 5656 5658 5659 5658 5660 5662 5665 5667 5668 5669 5671 5673 5673 5673 5673 5673 5675 5676 5675 5675 5675 5676 5677 5677 5676 5674 5671 5667 5664 5660 5657 5654 5650 5646 5643 5639 5636 5633 5629 5626 5623 5621 5620
5649 5651 5653 5654 5654 5655 5656 5658 5660 5662 5664 5665 5665 5665 5666 5666 5667 5668 5668 5667 5666 5666 5667 5670 5669 5668 5665 5663 5660 5656 5653 5650 5646 5643 5639 5636 5633 5629 5626 5623 5620 5618 5616 5613
5642 5644 5646 5647 5648 5649 5650 5653 5655 5656 5658 5658 5658 5658 5659 5660 5661 5661 5660 5659 5660 5661 5662 5661 5661 5659 5657 5654 5652 5649 5646 5643 5639 5636 5633 5629 5626 5622 5620 5617 5615 5612 5609 5607
5632 5634 5636 5638 5639 5642 5645 5648 5649 5650 5652 5652 5652 5652 5653 5654 5655 5654 5652 5650 5652 5654 5653 5653 5652 5650 5648 5646 5644 5641 5638 5635 5632 5628 5626 5622 5619 5616 5613 5611 5608 5606 5603 5600
5626 5627 5628 5631 5632 5635 5638 5641 5643 5644 5645 5645 5647 5647 5647 5646 5646 5645 5645 5644 5645 5646 5645 5644 5643 5642 5639 5638 5636 5634 5631 5628 5624 5621 5618 5615 5612 5608 5605 5603 5600 5598 5596 5593
5620 5621 5623 5625 5627 5630 5633 5635 5637 5638 5638 5639 5639 5640 5639 5639 5638 5637 5634 5637 5638 5638 5637 5636 5635 5634 5631 5629 5626 5624 5622 5619 5617 5614 5612 5609 5606 5602 5599 5597 5594 5591 5588 5586
5615 5617 5619 5621 5623 5624 5625 5629 5631 5632 5632 5632 5632 5633 5632 5631 5630 5630 5631 5631 5631 5631 5630 5628 5627 5626 5623 5619 5617 5614 5612 5610 5609 5607 5604 5601 5598 5595 5592 5589 5586 5583 5581 5578
5611 5613 5615 5616 5617 5619 5621 5624 5624 5625 5624 5624 5625 5625 5625 5626 5624 5623 5623 5623 5623 5622 5621 5619 5618 5616 5614 5612 5609 5606 5603 5602 5601 5598 5596 5593 5590 5587 5584 5581 5579 5575 5572 5570
5607 5609 5612 5613 5614 5615 5616 5617 5617 5616 5616 5615 5616 5616 5617 5617 5617 5616 5615 5615 5614 5613 5612 5611 5610 5608 5606 5604 5602 5599 5596 5594 5592 5590 5588 5585 5582 5579 5576 5573 5571 5568 5565 5562
5602 5604 5606 5607 5609 5610 5610 5611 5610 5610 5610 5610 5609 5609 5609 5609 5608 5608 5607 5606 5606 5604 5603 5602 5601 5600 5598 5596 5594 5591 5588 5586 5584 5582 5579 5576 5574 5571 5568 5565 5562 5560 5557 5555